Retour au catalogue

STARLINK-36248

ActifCommunicationsVLEO
NORAD 68979·PAYLOAD·🇺🇸 United States

Lancé May 1, 2026 depuis Cape Canaveral Space Force Station

Loading…

Prochains Passages (prochaines 24 heures)

TLE

FraisSource: CelesTrak SupGP

Époque: Sep 15, 2026, 03:41 UTC

1 68979C 26099AE  26258.15395833 -.00012776  00000+0 -37756-3 0  2588
2 68979  53.1568 100.4234 0001264  89.5527  90.5431 15.34390189    18

Suivez STARLINK-36248 en temps réel avec AllMySat

Download on the App Store